Location: Dittelbrunn
(50.0738°N, 10.2196°E)
Time: 13:03:22
(UTC+00:00)

NOSS 8 (F) - Pass Details

Date: 18 September 2020
Orbit: 385 x 1787 km, 63.3° (Epoch: 25 October)

Event Time Altitude Azimuth Distance (km) Brightness Sun altitude
Rises 18:05:56 0° 218° (SW) 2,463 8.5 -7.3°
Reaches altitude 10° 18:08:08 10° 217° (SW) 1,499 7.4 -7.6°
Maximum altitude 18:11:18 76° 131° (SE) 407 4.0 -8.1°
Drops below altitude 10° 18:14:18 10° 46° (NE) 1,427 6.6 -8.6°
Sets 18:16:21 0° 44° (NE) 2,328 7.7 -8.9°
